UAE708 FSIA-OMDB

Flight info

Callsign UAE708
Flight time N/A
Altitude 37000
Route DULMA1A DULMA T145 GEPAX DCT IMTIP/N0484F390 UM314 SUHIL R401 KIVEL/N0485F410 R401 VELIK/N0485F400 R401 MUSAP/N0483F350 R401 PEDOG Q308 KIPOK Q568 IMPED
Aircraft A359/H-SDE2E3GHIJ3J4J5LM1ORWXY/LB1D1

Departure

Time 2026-04-27 07:16
Airport Seychelles International Airport (FSIA)

Arrival

Time N/A
Airport Dubai International Airport (OMDB)
Time Latitude Longitude Altitude Speed Heading
2026-04-27 06:28 -4.67013 55.51141 27 ft 0 kts 215°
2026-04-27 07:08 -4.67004 55.51147 25 ft 4 kts 220°
2026-04-27 07:08 -4.66986 55.51167 27 ft 4 kts 244°
2026-04-27 07:09 -4.66979 55.51192 27 ft 4 kts 277°
2026-04-27 07:09 -4.66985 55.51210 27 ft 0 kts 306°
2026-04-27 07:09 -4.66985 55.51209 27 ft 0 kts 306°
2026-04-27 07:14 -4.66973 55.51203 24 ft 3 kts 347°
2026-04-27 07:14 -4.66915 55.51201 27 ft 13 kts 343°
2026-04-27 07:14 -4.66842 55.51118 27 ft 15 kts 303°
2026-04-27 07:14 -4.66776 55.51036 27 ft 13 kts 330°
2026-04-27 07:15 -4.66707 55.51052 27 ft 10 kts 44°
2026-04-27 07:15 -4.66700 55.51100 29 ft 6 kts 108°
2026-04-27 07:15 -4.66725 55.51143 29 ft 14 kts 125°
2026-04-27 07:15 -4.66877 55.51363 28 ft 70 kts 124°
2026-04-27 07:16 -4.67275 55.51943 29 ft 130 kts 125°
2026-04-27 07:16 -4.67869 55.52813 274 ft 149 kts 123°
2026-04-27 07:16 -4.68402 55.53637 1029 ft 139 kts 127°
2026-04-27 07:16 -4.68991 55.54481 1301 ft 156 kts 130°
2026-04-27 07:17 -4.69654 55.55376 1719 ft 162 kts 130°
2026-04-27 07:17 -4.70323 55.56300 2241 ft 169 kts 129°
2026-04-27 07:17 -4.71053 55.57330 2488 ft 194 kts 128°
2026-04-27 07:17 -4.71857 55.58513 2702 ft 218 kts 123°
2026-04-27 07:18 -4.72264 55.60035 2969 ft 241 kts 88°
2026-04-27 07:18 -4.71655 55.61671 3199 ft 265 kts 53°
2026-04-27 07:18 -4.70427 55.63112 3705 ft 276 kts 47°
2026-04-27 07:18 -4.69130 55.64546 4424 ft 278 kts 48°
2026-04-27 07:19 -4.67843 55.66012 5101 ft 282 kts 49°
2026-04-27 07:19 -4.66558 55.67513 5767 ft 285 kts 50°
2026-04-27 07:19 -4.65271 55.69038 6445 ft 288 kts 50°
2026-04-27 07:19 -4.63990 55.70567 7066 ft 292 kts 50°
2026-04-27 07:20 -4.62684 55.72134 7778 ft 293 kts 50°
2026-04-27 07:20 -4.61375 55.73707 8501 ft 296 kts 50°
2026-04-27 07:20 -4.60047 55.75305 9203 ft 299 kts 50°
2026-04-27 07:20 -4.58717 55.76906 9980 ft 300 kts 50°
2026-04-27 07:21 -4.57354 55.78547 10383 ft 315 kts 50°
2026-04-27 07:21 -4.55911 55.80284 10645 ft 333 kts 50°
2026-04-27 07:21 -4.54391 55.82114 10870 ft 350 kts 50°
2026-04-27 07:21 -4.52806 55.84022 11248 ft 360 kts 50°
2026-04-27 07:22 -4.51195 55.85963 11835 ft 364 kts 50°
2026-04-27 07:22 -4.49569 55.87920 12432 ft 367 kts 50°
2026-04-27 07:22 -4.47933 55.89891 13050 ft 369 kts 50°
2026-04-27 07:22 -4.46285 55.91875 13617 ft 372 kts 50°
2026-04-27 07:23 -4.44562 55.93822 14147 ft 375 kts 43°
2026-04-27 07:23 -4.42415 55.95285 14654 ft 375 kts 23°
2026-04-27 07:23 -4.39886 55.95929 15165 ft 377 kts
2026-04-27 07:23 -4.37260 55.96127 15661 ft 380 kts
2026-04-27 07:24 -4.34612 55.96134 16165 ft 382 kts 359°
2026-04-27 07:24 -4.31943 55.96063 16649 ft 385 kts 358°
2026-04-27 07:24 -4.29257 55.95978 17157 ft 387 kts 359°
2026-04-27 07:24 -4.26555 55.95909 17638 ft 390 kts 359°
2026-04-27 07:25 -4.23831 55.95862 18111 ft 393 kts 360°
2026-04-27 07:25 -4.21090 55.95835 18546 ft 395 kts
2026-04-27 07:25 -4.18330 55.95821 18910 ft 399 kts
2026-04-27 07:25 -4.15540 55.95814 19314 ft 402 kts
2026-04-27 07:26 -4.12738 55.95810 19713 ft 405 kts
2026-04-27 07:26 -4.09911 55.95806 20097 ft 408 kts
2026-04-27 07:26 -4.07053 55.95801 20454 ft 412 kts
2026-04-27 07:26 -4.04173 55.95796 20862 ft 415 kts
2026-04-27 07:27 -4.01309 55.95789 21256 ft 418 kts
2026-04-27 07:27 -3.98391 55.95781 21662 ft 421 kts
2026-04-27 07:27 -3.95454 55.95774 22051 ft 424 kts
2026-04-27 07:27 -3.92492 55.95766 22430 ft 427 kts
2026-04-27 07:28 -3.89507 55.95759 22840 ft 430 kts
2026-04-27 07:28 -3.86507 55.95751 23230 ft 433 kts
2026-04-27 07:28 -3.83485 55.95743 23564 ft 436 kts
2026-04-27 07:28 -3.80445 55.95735 23882 ft 438 kts
2026-04-27 07:29 -3.77385 55.95726 24141 ft 442 kts
2026-04-27 07:29 -3.74295 55.95718 24460 ft 445 kts
2026-04-27 07:29 -3.71190 55.95711 24783 ft 448 kts
2026-04-27 07:29 -3.68063 55.95703 25135 ft 450 kts
2026-04-27 07:30 -3.64923 55.95696 25519 ft 453 kts
2026-04-27 07:30 -3.61756 55.95687 25838 ft 457 kts
2026-04-27 07:30 -3.58570 55.95679 26273 ft 458 kts
2026-04-27 07:30 -3.55367 55.95670 26592 ft 463 kts
2026-04-27 07:31 -3.52141 55.95661 27007 ft 464 kts
2026-04-27 07:31 -3.48902 55.95653 27379 ft 468 kts
2026-04-27 07:31 -3.45634 55.95644 27758 ft 470 kts
2026-04-27 07:31 -3.42362 55.95635 28171 ft 472 kts
2026-04-27 07:32 -3.39068 55.95627 28514 ft 475 kts
2026-04-27 07:32 -3.35754 55.95618 28918 ft 477 kts
2026-04-27 07:32 -3.32429 55.95610 29220 ft 481 kts
2026-04-27 07:32 -3.29068 55.95602 29621 ft 482 kts
2026-04-27 07:33 -3.25703 55.95593 29939 ft 486 kts
2026-04-27 07:33 -3.22311 55.95584 30241 ft 488 kts
2026-04-27 07:33 -3.18908 55.95575 30540 ft 490 kts
2026-04-27 07:33 -3.15490 55.95566 30838 ft 492 kts
2026-04-27 07:34 -3.12074 55.95557 31231 ft 491 kts
2026-04-27 07:34 -3.08644 55.95547 31500 ft 494 kts
2026-04-27 07:34 -3.05203 55.95539 31776 ft 496 kts
2026-04-27 07:34 -3.01744 55.95530 32003 ft 498 kts
2026-04-27 07:35 -2.98275 55.95522 32278 ft 500 kts
2026-04-27 07:35 -2.94789 55.95513 32514 ft 502 kts
2026-04-27 07:35 -2.91286 55.95504 32779 ft 503 kts
2026-04-27 07:35 -2.87828 55.95495 33005 ft 505 kts
2026-04-27 07:36 -2.84303 55.95486 33214 ft 507 kts
2026-04-27 07:36 -2.80770 55.95476 33472 ft 508 kts
2026-04-27 07:36 -2.77222 55.95467 33646 ft 511 kts
2026-04-27 07:36 -2.73668 55.95458 33891 ft 512 kts
2026-04-27 07:37 -2.70102 55.95449 34094 ft 512 kts
2026-04-27 07:37 -2.66545 55.95440 34425 ft 510 kts
2026-04-27 07:37 -2.63001 55.95430 34695 ft 509 kts
2026-04-27 07:37 -2.59467 55.95421 35011 ft 507 kts
2026-04-27 07:38 -2.55941 55.95412 35258 ft 507 kts
2026-04-27 07:38 -2.52416 55.95403 35536 ft 505 kts
2026-04-27 07:38 -2.48909 55.95393 35770 ft 505 kts
2026-04-27 07:38 -2.45386 55.95384 35991 ft 505 kts
2026-04-27 07:39 -2.41879 55.95375 36272 ft 504 kts
2026-04-27 07:39 -2.38374 55.95366 36501 ft 503 kts
2026-04-27 07:39 -2.34881 55.95357 36767 ft 502 kts
2026-04-27 07:39 -2.31384 55.95348 36957 ft 502 kts
2026-04-27 07:40 -2.27898 55.95339 37221 ft 501 kts
2026-04-27 07:40 -2.24413 55.95330 37419 ft 501 kts
2026-04-27 07:40 -2.20937 55.95253 37663 ft 499 kts 356°
2026-04-27 07:40 -2.17491 55.94820 37853 ft 500 kts 352°
2026-04-27 07:41 -2.14060 55.94256 38030 ft 499 kts 351°
2026-04-27 07:41 -2.10648 55.93644 38285 ft 498 kts 350°
2026-04-27 07:41 -2.07240 55.93007 38426 ft 498 kts 350°
2026-04-27 07:41 -2.03837 55.92362 38638 ft 497 kts 349°
2026-04-27 07:42 -2.00444 55.91718 38818 ft 496 kts 350°
2026-04-27 07:42 -1.93652 55.90442 38898 ft 497 kts 350°
2026-04-27 07:43 -1.86853 55.89176 38899 ft 497 kts 350°
2026-04-27 07:43 -1.80039 55.87912 38897 ft 499 kts 350°
2026-04-27 07:44 -1.73208 55.86645 38899 ft 499 kts 351°
2026-04-27 07:44 -1.66377 55.85378 38897 ft 499 kts 351°
2026-04-27 07:45 -1.59594 55.84119 38908 ft 499 kts 350°
2026-04-27 07:45 -1.52768 55.82852 38906 ft 499 kts 351°
2026-04-27 07:46 -1.45945 55.81586 38904 ft 499 kts 351°
2026-04-27 07:46 -1.39119 55.80319 38901 ft 499 kts 351°
2026-04-27 07:47 -1.32296 55.79054 38904 ft 499 kts 350°
2026-04-27 07:47 -1.25474 55.77788 38905 ft 497 kts 351°
2026-04-27 07:48 -1.18684 55.76528 38905 ft 496 kts 351°
2026-04-27 07:48 -1.11897 55.75269 38909 ft 496 kts 351°
2026-04-27 07:49 -1.05104 55.74009 38911 ft 496 kts 351°
2026-04-27 07:49 -0.98314 55.72750 38905 ft 496 kts 351°
2026-04-27 07:50 -0.91521 55.71490 38909 ft 497 kts 351°
2026-04-27 07:50 -0.84687 55.70223 38909 ft 501 kts 350°
2026-04-27 07:51 -0.77834 55.68952 38912 ft 501 kts 351°
2026-04-27 07:51 -0.70980 55.67680 38901 ft 501 kts 351°
2026-04-27 07:52 -0.64122 55.66409 38902 ft 501 kts 351°
2026-04-27 07:52 -0.58432 55.65354 38910 ft 499 kts 350°
2026-04-27 07:53 -0.51610 55.64089 38895 ft 498 kts 350°
2026-04-27 07:53 -0.44794 55.62825 38893 ft 498 kts 351°
2026-04-27 07:54 -0.37977 55.61561 38900 ft 498 kts 351°
2026-04-27 07:54 -0.31160 55.60297 38900 ft 498 kts 350°
2026-04-27 07:55 -0.24369 55.59037 38894 ft 495 kts 350°
2026-04-27 07:55 -0.17609 55.57784 38894 ft 493 kts 351°
2026-04-27 07:56 -0.10862 55.56533 38901 ft 493 kts 350°
2026-04-27 07:56 -0.04112 55.55281 38905 ft 494 kts 351°
2026-04-27 07:57 0.02641 55.54029 38896 ft 493 kts 351°
2026-04-27 07:57 0.09390 55.52778 38906 ft 493 kts 350°
2026-04-27 07:58 0.16148 55.51526 38904 ft 495 kts 350°
2026-04-27 07:58 0.22890 55.50276 38911 ft 497 kts 350°
2026-04-27 07:59 0.29691 55.49014 38901 ft 497 kts 350°
2026-04-27 07:59 0.39894 55.47122 38894 ft 497 kts 350°
2026-04-27 08:00 0.46694 55.45861 38908 ft 497 kts 350°
2026-04-27 08:00 0.53495 55.44599 38910 ft 497 kts 350°
2026-04-27 08:01 0.60293 55.43339 38895 ft 497 kts 350°
2026-04-27 08:01 0.67094 55.42077 38914 ft 497 kts 351°
2026-04-27 08:02 0.73908 55.40814 38911 ft 498 kts 351°
2026-04-27 08:02 0.80720 55.39550 38905 ft 498 kts 351°
2026-04-27 08:03 0.87539 55.38286 38913 ft 498 kts 351°
2026-04-27 08:03 0.94351 55.37023 38909 ft 498 kts 350°
2026-04-27 08:04 1.01165 55.35759 38912 ft 497 kts 350°
2026-04-27 08:04 1.07962 55.34498 38915 ft 497 kts 351°
2026-04-27 08:05 1.14723 55.33244 38916 ft 497 kts 351°
2026-04-27 08:05 1.21525 55.31982 38901 ft 497 kts 350°
2026-04-27 08:06 1.28334 55.30719 38918 ft 498 kts 350°
2026-04-27 08:06 1.35194 55.29632 38905 ft 500 kts 355°
2026-04-27 08:07 1.42124 55.29043 38906 ft 500 kts 356°
2026-04-27 08:07 1.49066 55.28541 38908 ft 500 kts 357°
2026-04-27 08:08 1.56002 55.28050 38907 ft 500 kts 357°
2026-04-27 08:08 1.62958 55.27550 38911 ft 503 kts 357°
2026-04-27 08:09 1.69961 55.27040 38908 ft 506 kts 357°
2026-04-27 08:09 1.76982 55.26528 38908 ft 506 kts 357°
2026-04-27 08:10 1.83988 55.26016 38909 ft 504 kts 357°
2026-04-27 08:10 1.90989 55.25505 38911 ft 504 kts 357°
2026-04-27 08:11 1.97984 55.24995 38907 ft 504 kts 357°
2026-04-27 08:11 2.04990 55.24485 38909 ft 504 kts 357°
2026-04-27 08:12 2.11989 55.23974 38909 ft 505 kts 357°
2026-04-27 08:12 2.18994 55.23463 38909 ft 505 kts 357°
2026-04-27 08:13 2.25996 55.22953 38911 ft 505 kts 356°
2026-04-27 08:13 2.32960 55.22445 38911 ft 505 kts 356°
2026-04-27 08:14 2.39965 55.21933 38911 ft 505 kts 356°
2026-04-27 08:14 2.46976 55.21422 38911 ft 505 kts 356°
2026-04-27 08:15 2.53984 55.20911 38913 ft 506 kts 356°
2026-04-27 08:15 2.61023 55.20397 38911 ft 508 kts 356°
2026-04-27 08:16 2.68070 55.19882 38911 ft 508 kts 356°
2026-04-27 08:16 2.75126 55.19367 38911 ft 508 kts 356°
2026-04-27 08:17 2.82175 55.18852 38916 ft 508 kts 356°
2026-04-27 08:17 2.89242 55.18337 38908 ft 510 kts 356°
2026-04-27 08:18 2.96323 55.17819 38908 ft 511 kts 356°
2026-04-27 08:18 3.03414 55.17301 38906 ft 511 kts 356°
2026-04-27 08:19 3.10499 55.16784 38908 ft 511 kts 356°
2026-04-27 08:19 3.17592 55.16266 38910 ft 512 kts 356°
2026-04-27 08:20 3.24711 55.15745 38905 ft 514 kts 356°
2026-04-27 08:20 3.31847 55.15224 38906 ft 514 kts 356°
2026-04-27 08:21 3.38978 55.14703 38906 ft 514 kts 356°
2026-04-27 08:21 3.46115 55.14181 38906 ft 514 kts 356°
2026-04-27 08:22 3.53246 55.13660 38906 ft 514 kts 356°
2026-04-27 08:22 3.60336 55.13141 38906 ft 514 kts 356°
2026-04-27 08:23 3.67466 55.12620 38906 ft 514 kts 356°
2026-04-27 08:23 3.74601 55.12098 38906 ft 514 kts 356°
2026-04-27 08:24 3.81737 55.11576 38906 ft 515 kts 355°
2026-04-27 08:24 3.88898 55.11052 38908 ft 516 kts 355°
2026-04-27 08:25 3.96058 55.10528 38909 ft 516 kts 355°
2026-04-27 08:25 4.03219 55.10004 38908 ft 516 kts 355°
2026-04-27 08:26 4.10389 55.09480 38909 ft 517 kts 355°
2026-04-27 08:26 4.17580 55.08956 38909 ft 518 kts 355°
2026-04-27 08:27 4.24727 55.08431 38907 ft 518 kts 355°
2026-04-27 08:27 4.31973 55.07900 38912 ft 518 kts 355°
2026-04-27 08:28 4.39118 55.07377 38914 ft 519 kts 356°
2026-04-27 08:28 4.46316 55.06850 38908 ft 519 kts 356°
2026-04-27 08:29 4.53521 55.06323 38906 ft 519 kts 356°
2026-04-27 08:29 4.60720 55.05795 38906 ft 519 kts 356°
2026-04-27 08:30 4.67926 55.05268 38908 ft 519 kts 356°
2026-04-27 08:30 4.75130 55.04740 38908 ft 519 kts 355°
2026-04-27 08:31 4.82344 55.04211 38908 ft 520 kts 355°
2026-04-27 08:31 4.89552 55.03683 38909 ft 520 kts 355°
2026-04-27 08:32 4.96765 55.03154 38906 ft 520 kts 355°
2026-04-27 08:32 5.03975 55.02626 38909 ft 520 kts 355°
2026-04-27 08:33 5.11208 55.02095 38909 ft 521 kts 355°
2026-04-27 08:33 5.18446 55.01564 38908 ft 521 kts 355°
2026-04-27 08:34 5.25679 55.01033 38906 ft 521 kts 355°
2026-04-27 08:34 5.32914 55.00503 38908 ft 520 kts 355°
2026-04-27 08:35 5.40071 54.99978 38908 ft 519 kts 355°
2026-04-27 08:35 5.47280 54.99787 38908 ft 519 kts
2026-04-27 08:36 5.54499 54.99900 38905 ft 519 kts
2026-04-27 08:36 5.61718 54.99985 38914 ft 519 kts
2026-04-27 08:37 5.68921 55.00008 38908 ft 517 kts 360°
2026-04-27 08:37 5.76115 55.00007 38908 ft 517 kts 360°
2026-04-27 08:38 5.83301 55.00002 38908 ft 517 kts 360°
2026-04-27 08:38 5.90493 55.00000 38905 ft 517 kts 360°
2026-04-27 08:39 5.97671 55.00000 38905 ft 515 kts 360°
2026-04-27 08:39 6.04824 55.00001 38909 ft 513 kts 360°
2026-04-27 08:40 6.11961 55.00001 38908 ft 513 kts 360°
2026-04-27 08:40 6.19105 55.00001 38911 ft 513 kts 360°
2026-04-27 08:41 6.26241 55.00000 38907 ft 512 kts 360°
2026-04-27 08:41 6.33341 55.00000 38909 ft 509 kts 360°
2026-04-27 08:42 6.39217 55.00001 38906 ft 508 kts 360°
2026-04-27 08:42 6.47438 55.00001 38905 ft 508 kts 360°
2026-04-27 08:43 6.53361 55.00001 38906 ft 508 kts 360°
2026-04-27 08:43 6.60438 55.00001 38905 ft 508 kts 360°
2026-04-27 08:44 6.67510 55.00001 38905 ft 508 kts 360°
2026-04-27 08:44 6.74584 55.00001 38900 ft 509 kts 360°
2026-04-27 08:45 6.81664 55.00001 38903 ft 509 kts 360°
2026-04-27 08:45 6.88740 55.00003 38901 ft 506 kts
2026-04-27 08:46 6.95740 55.00001 38904 ft 501 kts
2026-04-27 08:46 7.02712 55.00000 38903 ft 501 kts
2026-04-27 08:47 7.09677 55.00000 38900 ft 501 kts
2026-04-27 08:47 7.16603 55.00000 38903 ft 501 kts
2026-04-27 08:48 7.23541 55.00000 38900 ft 497 kts
2026-04-27 08:48 7.30446 55.00000 38900 ft 496 kts
2026-04-27 08:49 7.37340 55.00000 38898 ft 496 kts
2026-04-27 08:49 7.44243 55.00000 38897 ft 496 kts
2026-04-27 08:50 7.51132 55.00000 38897 ft 493 kts
2026-04-27 08:50 7.57967 54.99999 38898 ft 490 kts
2026-04-27 08:51 7.64776 55.00000 38895 ft 490 kts
2026-04-27 08:51 7.71592 55.00000 38892 ft 490 kts
2026-04-27 08:52 7.78404 55.00000 38903 ft 490 kts
2026-04-27 08:52 7.85193 55.00000 38894 ft 486 kts
2026-04-27 08:53 7.91942 55.00000 38894 ft 485 kts
2026-04-27 08:53 7.98693 55.00000 38894 ft 485 kts
2026-04-27 08:54 8.05445 55.00000 38889 ft 485 kts
2026-04-27 08:54 8.12185 55.00000 38894 ft 483 kts
2026-04-27 08:55 8.18878 55.00003 38890 ft 480 kts
2026-04-27 08:55 8.25514 55.00004 38893 ft 480 kts
2026-04-27 08:56 8.32233 55.00002 38893 ft 480 kts
2026-04-27 08:56 8.38868 55.00000 38896 ft 480 kts
2026-04-27 08:57 8.48860 54.99999 38892 ft 478 kts
2026-04-27 08:58 8.55504 55.00000 38891 ft 478 kts
2026-04-27 08:58 8.62150 55.00000 38895 ft 478 kts
2026-04-27 08:59 8.68801 55.00000 38894 ft 478 kts
2026-04-27 08:59 8.75443 54.99999 38890 ft 476 kts
2026-04-27 09:00 8.82062 54.99999 38892 ft 475 kts
2026-04-27 09:00 8.88675 55.00000 38896 ft 475 kts
2026-04-27 09:01 8.95290 55.00000 38897 ft 475 kts
2026-04-27 09:01 9.01902 55.00000 38893 ft 475 kts
2026-04-27 09:02 9.08504 54.99999 38890 ft 474 kts
2026-04-27 09:02 9.15094 54.99999 38891 ft 474 kts
2026-04-27 09:03 9.21644 55.00000 38895 ft 474 kts
2026-04-27 09:03 9.28233 55.00004 38892 ft 474 kts
2026-04-27 09:04 9.34824 55.00003 38890 ft 473 kts
2026-04-27 09:04 9.41401 55.00000 38894 ft 472 kts
2026-04-27 09:05 9.47972 54.99999 38892 ft 472 kts
2026-04-27 09:05 9.54541 54.99999 38887 ft 472 kts
2026-04-27 09:06 9.61112 55.00000 38885 ft 472 kts
2026-04-27 09:06 9.67684 55.00000 38890 ft 472 kts
2026-04-27 09:07 9.74248 55.00000 38888 ft 472 kts
2026-04-27 09:07 9.80821 55.00000 38887 ft 472 kts
2026-04-27 09:08 9.87387 55.00000 38886 ft 472 kts
2026-04-27 09:08 9.93957 54.99999 38886 ft 471 kts
2026-04-27 09:09 10.00507 54.99999 38887 ft 470 kts
2026-04-27 09:09 10.07003 54.99999 38885 ft 470 kts
2026-04-27 09:10 10.13543 54.99999 38888 ft 470 kts
2026-04-27 09:10 10.20082 55.00000 38886 ft 470 kts
2026-04-27 09:11 10.26619 54.99999 38885 ft 469 kts
2026-04-27 09:11 10.33140 55.00000 38887 ft 469 kts
2026-04-27 09:12 10.39665 55.00004 38890 ft 469 kts
2026-04-27 09:12 10.46184 55.00002 38888 ft 469 kts
2026-04-27 09:13 10.52709 55.00000 38883 ft 469 kts
2026-04-27 09:13 10.59225 54.99999 38888 ft 468 kts
2026-04-27 09:14 10.65744 54.99999 38887 ft 468 kts
2026-04-27 09:14 10.72258 54.99999 38885 ft 468 kts
2026-04-27 09:15 10.78771 55.00000 38887 ft 468 kts
2026-04-27 09:15 10.85290 54.99999 38885 ft 468 kts
2026-04-27 09:16 10.91809 54.99999 38885 ft 468 kts
2026-04-27 09:16 10.98281 54.99999 38889 ft 468 kts
2026-04-27 09:17 11.04801 54.99999 38884 ft 468 kts
2026-04-27 09:17 11.11316 55.00000 38885 ft 468 kts
2026-04-27 09:18 11.17836 54.99999 38889 ft 468 kts
2026-04-27 09:18 11.24350 55.00000 38888 ft 468 kts
2026-04-27 09:19 11.30869 55.00000 38885 ft 468 kts
2026-04-27 09:19 11.37385 55.00000 38884 ft 468 kts
2026-04-27 09:20 11.43907 55.00001 38887 ft 468 kts
2026-04-27 09:20 11.50422 55.00000 38889 ft 468 kts
2026-04-27 09:21 11.56942 55.00000 38891 ft 468 kts
2026-04-27 09:21 11.63457 55.00000 38884 ft 468 kts
2026-04-27 09:22 11.69976 55.00000 38886 ft 468 kts
2026-04-27 09:22 11.76497 55.00000 38889 ft 468 kts
2026-04-27 09:23 11.83014 55.00000 38889 ft 469 kts
2026-04-27 09:23 11.89493 55.00000 38892 ft 468 kts
2026-04-27 09:24 11.96008 55.00000 38892 ft 468 kts
2026-04-27 09:24 12.02490 55.00337 38889 ft 465 kts
2026-04-27 09:25 12.08932 55.01081 38893 ft 466 kts 10°
2026-04-27 09:25 12.15368 55.01891 38892 ft 466 kts 10°
2026-04-27 09:26 12.21798 55.02705 38892 ft 466 kts 10°
2026-04-27 09:26 12.28230 55.03510 38892 ft 466 kts 10°
2026-04-27 09:27 12.34666 55.04312 38884 ft 466 kts 10°
2026-04-27 09:27 12.41109 55.05115 38892 ft 466 kts 10°
2026-04-27 09:28 12.47549 55.05917 38889 ft 466 kts 10°
2026-04-27 09:28 12.53995 55.06721 38889 ft 466 kts 10°
2026-04-27 09:29 12.60439 55.07525 38893 ft 466 kts 10°
2026-04-27 09:29 12.66880 55.08330 38892 ft 466 kts 10°
2026-04-27 09:30 12.73318 55.09134 38891 ft 466 kts 10°
2026-04-27 09:30 12.79762 55.09940 38892 ft 466 kts 10°
2026-04-27 09:31 12.86199 55.10745 38889 ft 466 kts 10°
2026-04-27 09:31 12.92600 55.11546 38889 ft 466 kts 10°
2026-04-27 09:32 12.99045 55.12353 38888 ft 467 kts 10°
2026-04-27 09:32 13.05509 55.13163 38886 ft 468 kts 10°
2026-04-27 09:33 13.11971 55.13972 38885 ft 468 kts 10°
2026-04-27 09:33 13.17390 55.14652 38886 ft 468 kts 10°
2026-04-27 09:34 13.23853 55.15462 38891 ft 468 kts 10°
2026-04-27 09:34 13.30327 55.16275 38886 ft 469 kts 10°
2026-04-27 09:35 13.36804 55.17089 38889 ft 469 kts 10°
2026-04-27 09:35 13.43287 55.17903 38886 ft 469 kts 10°
2026-04-27 09:36 13.49763 55.18717 38886 ft 469 kts 10°
2026-04-27 09:36 13.56201 55.19527 38883 ft 469 kts
2026-04-27 09:37 13.62687 55.20344 38888 ft 470 kts
2026-04-27 09:37 13.69183 55.21162 38887 ft 470 kts
2026-04-27 09:38 13.75674 55.21979 38883 ft 470 kts
2026-04-27 09:38 13.82170 55.22798 38883 ft 470 kts
2026-04-27 09:39 13.88661 55.23617 38883 ft 470 kts
2026-04-27 09:39 13.95162 55.24435 38883 ft 471 kts
2026-04-27 09:40 14.01662 55.25238 38884 ft 471 kts
2026-04-27 09:40 14.08167 55.26040 38884 ft 471 kts
2026-04-27 09:41 14.14665 55.26846 38878 ft 470 kts
2026-04-27 09:41 14.21169 55.27654 38881 ft 471 kts
2026-04-27 09:42 14.27674 55.28462 38883 ft 471 kts
2026-04-27 09:42 14.34179 55.29271 38881 ft 471 kts
2026-04-27 09:43 14.40682 55.30080 38876 ft 471 kts
2026-04-27 09:43 14.47182 55.30890 38877 ft 471 kts
2026-04-27 09:44 14.53690 55.31700 38873 ft 471 kts
2026-04-27 09:44 14.60193 55.32511 38876 ft 471 kts
2026-04-27 09:45 14.66701 55.33322 38878 ft 471 kts
2026-04-27 09:45 14.73203 55.34134 38876 ft 471 kts
2026-04-27 09:46 14.79711 55.34947 38873 ft 471 kts
2026-04-27 09:46 14.86213 55.35759 38876 ft 471 kts
2026-04-27 09:47 14.92678 55.36567 38874 ft 471 kts
2026-04-27 09:47 14.99180 55.37381 38873 ft 471 kts
2026-04-27 09:48 15.05689 55.38195 38870 ft 471 kts
2026-04-27 09:48 15.12241 55.39017 38873 ft 472 kts
2026-04-27 09:49 15.18717 55.39828 38872 ft 472 kts
2026-04-27 09:49 15.25232 55.40638 38873 ft 472 kts
2026-04-27 09:50 15.31798 55.41443 38872 ft 472 kts
2026-04-27 09:50 15.38271 55.42239 38870 ft 472 kts
2026-04-27 09:51 15.44803 55.43044 38870 ft 473 kts
2026-04-27 09:51 15.51333 55.43851 38870 ft 473 kts
2026-04-27 09:52 15.57867 55.44658 38871 ft 473 kts
2026-04-27 09:52 15.64396 55.45466 38870 ft 473 kts
2026-04-27 09:53 15.70929 55.46274 38868 ft 473 kts
2026-04-27 09:53 15.77460 55.47083 38868 ft 473 kts
2026-04-27 09:54 15.83993 55.47892 38862 ft 473 kts
2026-04-27 09:54 15.90521 55.48702 38862 ft 473 kts
2026-04-27 09:55 15.97054 55.49512 38861 ft 473 kts
2026-04-27 09:55 16.06862 55.50730 38856 ft 473 kts
2026-04-27 09:56 16.13398 55.51542 38856 ft 473 kts
2026-04-27 09:56 16.19940 55.52356 38857 ft 473 kts
2026-04-27 09:57 16.26474 55.53169 38856 ft 473 kts
2026-04-27 09:57 16.33016 55.53984 38856 ft 473 kts
2026-04-27 09:58 16.39554 55.54798 38857 ft 473 kts
2026-04-27 09:58 16.46096 55.55614 38854 ft 473 kts
2026-04-27 09:59 16.52639 55.56430 38853 ft 473 kts
2026-04-27 09:59 16.59137 55.57242 38850 ft 473 kts
2026-04-27 10:00 16.65680 55.58059 38846 ft 473 kts
2026-04-27 10:00 16.72219 55.58877 38845 ft 473 kts
2026-04-27 10:01 16.78758 55.59695 38843 ft 473 kts
2026-04-27 10:01 16.85298 55.60514 38842 ft 473 kts
2026-04-27 10:02 16.91830 55.61338 38840 ft 472 kts
2026-04-27 10:02 16.98354 55.62167 38839 ft 472 kts
2026-04-27 10:03 17.04880 55.62995 38840 ft 472 kts
2026-04-27 10:03 17.11402 55.63824 38840 ft 472 kts
2026-04-27 10:04 17.17922 55.64654 38837 ft 472 kts
2026-04-27 10:04 17.24440 55.65483 38837 ft 472 kts
2026-04-27 10:05 17.30952 55.66313 38834 ft 472 kts
2026-04-27 10:05 17.37468 55.67144 38835 ft 471 kts
2026-04-27 10:06 17.43978 55.67974 38834 ft 471 kts
2026-04-27 10:06 17.50490 55.68806 38835 ft 471 kts
2026-04-27 10:07 17.56997 55.69637 38835 ft 471 kts
2026-04-27 10:07 17.63502 55.70469 38834 ft 471 kts
2026-04-27 10:08 17.70008 55.71301 38835 ft 471 kts
2026-04-27 10:08 17.76515 55.72135 38834 ft 471 kts
2026-04-27 10:09 17.83022 55.72968 38832 ft 471 kts
2026-04-27 10:09 17.89530 55.73803 38832 ft 471 kts
2026-04-27 10:10 17.95996 55.74633 38826 ft 471 kts
2026-04-27 10:10 18.02414 55.76003 38832 ft 471 kts 13°
2026-04-27 10:11 18.08782 55.77652 38821 ft 471 kts 13°
2026-04-27 10:11 18.15143 55.79350 38821 ft 471 kts 13°
2026-04-27 10:12 18.21499 55.81046 38812 ft 471 kts 13°
2026-04-27 10:12 18.27859 55.82735 38812 ft 471 kts 13°
2026-04-27 10:13 18.34212 55.84421 38810 ft 471 kts 13°
2026-04-27 10:13 18.40576 55.86111 38809 ft 472 kts 13°
2026-04-27 10:14 18.46939 55.87799 38810 ft 472 kts 13°
2026-04-27 10:14 18.53301 55.89490 38809 ft 472 kts 13°
2026-04-27 10:15 18.59660 55.91182 38805 ft 472 kts 13°
2026-04-27 10:15 18.66026 55.92877 38804 ft 471 kts 13°
2026-04-27 10:16 18.72386 55.94572 38808 ft 471 kts 13°
2026-04-27 10:16 18.78745 55.96268 38807 ft 471 kts 13°
2026-04-27 10:17 18.85107 55.97966 38801 ft 471 kts 13°